SCP
0 0 0 0 0 0 0 0 0 0 0 0 0 0 0 0 0 0 0 0 0 0 0 0 0 0 0 0 0 0 0 0 0 0 0 0 0 0 0 0 0 0 0 0
0 0 0 0 0 0 0 0 0 0 0 0 0 0 0 0 0 0 0 0 0 0 0 0 0 0 0 0 0 0 0 0 0 0 0 0 0 0 0 0 0 0 0 0
0 0 0 0 0 0 0 0 0 0 0 0 0 0 0 0 0 0 0 0 0 0 0 0 0 0 0 0 0 0 0 0 0 0 0 0 0 0 0 0 0 0 0 0
0 0 0 0 0 0 0 0 0 0 0 0 0 0 0 0 0 0 0 0 0 0 0 0 0 0 0 0 0 0 0 0 0 0 0 0 0 0 0 0 0 0 0 0
0 0 0 0 0 0 0 0 0 0 0 0 0 0 0 0 0 0 0 0 0 0 0 0 0 0 0 0 0 0 0 0 0 0 0 0 0 0 0 0 0 0 0 0
0 0 0 0 0 0 0 0 0 0 0 0 0 0 0 0 0 0 0 0 0 0 0 0 0 0 0 0 0 0 0 0 0 0 0 0 0 0 0 0 0 0 0 0
0 0 0 0 0 0 0 0 0 0 0 0 0 0 0 0 0 0 0 0 0 0 0 0 0 0 0 0 0 0 0 0 0 0 0 0 0 0 0 0 0 0 0 0
0 0 0 0 0 0 0 0 0 0 0 0 0 0 0 0 0 0 0 0 0 0 0 0 0 0 0 0 0 0 0 0 0 0 0 0 0 0 0 0 0 0 0 0
0 0 0 0 0 0 0 0 0 0 0 0 0 0 0 0 0 0 0 0 0 0 0 0 0 0 0 0 0 0 0 0 0 0 0 0 0 0 0 0 0 0 0 0
0 0 0 0 0 0 0 0 0 0 0 0 0 0 0 0 0 0 0 0 0 0 0 0 0 0 0 0 0 0 0 0 0 0 0 0 0 0 0 0 0 0 0 0
0 0 0 0 0 0 0 0 0 0 0 0 0 0 0 0 0 0 0 0 0 0 0 0 0 0 0 0 0 0 0 0 0 0 0 0 0 0 0 0 0 0 0 0
0 0 0 0 0 0 0 0 0 0 0 0 0 0 0 0 0 0 0 0 0 0 0 0 0 0 0 0 0 0 0 0 0 0 0 0 0 0 0 0 0 0 0 0
0 0 0 0 0 0 0 0 0 0 0 0 0 0 0 0 0 0 0 0 0 0 0 0 0 0 0 0 0 0 0 0 0 0 0 0 0 0 0 0 0 0 0 0
0 0 0 0 0 0 0 0 0 0 0 0 0 0 0 0 0 0 0 0 0 0 0 0 0 0 0 0 0 0 0 0 0 0 0 0 0 0 0 0 0 0 0 0
0 0 0 0 0 0 0 0 0 0 0 0 0 0 0 0 0 0 0 0 0 0 0 0 0 0 0 0 0 0 0 0 0 0 0 0 0 0 0 0 0 0 0 0
0 0 0 0 0 0 0 0 0 0 0 0 0 0 0 0 0 0 0 0 0 0 0 0 0 0 0 0 0 0 0 0 0 0 0 0 0 0 0 0 0 0 0 0
0 0 0 0 0 0 0 0 0 0 0 0 0 0 0 0 0 0 0 0 0 0 0 0 0 0 0 0 0 0 0 0 0 0 0 0 0 0 0 0 0 0 0 0
0 0 0 0 0 0 0 0 0 0 0 0 0 0 0 0 0 0 0 0 0 0 0 0 0 0 0 0 0 0 0 0 0 0 0 0 0 0 0 0 0 0 0 0
0 0 0 0 0 0 0 0 0 0 0 0 0 0 0 0 0 0 0 0 0 0 0 0 0 0 0 0 0 0 0 0 0 0 0 0 0 0 0 0 0 0 0 0
0 0 0 0 0 0 0 0 0 0 0 0 0 0 0 0 0 0 0 0 0 0 0 0 0 0 0 0 0 0 0 0 0 0 0 0 0 0 0 0 0 0 0 0
0 0 0 0 0 0 0 0 0 0 0 0 0 0 0 0 0 0 0 0 0 0 0 0 0 0 0 0 0 0 0 0 0 0 0 0 0 0 0 0 0 0 0 0
0 0 0 0 0 0 0 0 0 0 0 0 0 0 0 0 0 0 0 0 0 0 0 0 0 0 0 0 0 0 0 0 0 0 0 0 0 0 0 0 0 0 0 0
0 0 0 0 0 0 0 0 0 0 0 0 0 0 0 0 0 0 0 0 0 0 0 0 0 0 0 0 0 0 0 0 0 0 0 0 0 0 0 0 0 0 0 0
0 0 0 0 0 0 0 0 0 0 0 0 0 0 0 0 0 0 0 0 0 0 0 0 0 0 0 0 0 0 0 0 0 0 0 0 0 0 0 0 0 0 0 0
0 0 0 0 0 0 0 0 0 0 0 0 0 0 0 0 0 0 0 0 0 0 0 0 0 0 0 0 0 0 0 0 0 0 0 0 0 0 0 0 0 0 0 0
0 0 0 0 0 0 0 0 0 0 0 0 0 0 0 0 0 0 0 0 0 0 0 0 0 0 0 0 0 0 0 0 0 0 0 0 0 0 0 0 0 0 0 0
0 0 0 0 0 0 0 0 0 0 0 0 0 0 0 0 0 0 0 0 0 0 0 0 0 0 0 0 0 0 0 0 0 0 0 0 0 0 0 0 0 0 0 0
Wind_Speed
1 1 2 4 5 7 8 7 6 6 6 6 4 4 3 3 5 6 7 7 8 8 8 8 8 8 8 7 6 5 4 4 4 4 2 2 3 3 4 4 5 6 6 6
1 0 2 5 7 8 9 9 10 9 8 3 3 3 3 3 5 6 7 7 8 8 9 9 9 9 9 8 7 6 5 4 4 3 2 3 3 4 4 4 5 5 6 6
2 1 3 7 9 11 8 7 7 8 5 1 2 3 4 4 5 5 6 7 9 9 8 9 9 9 9 8 8 6 5 5 4 3 3 2 3 4 4 5 5 5 5 6
1 2 6 0 2 5 8 8 8 7 4 3 4 4 4 4 4 5 7 8 8 8 9 9 8 8 8 8 7 6 6 5 4 3 3 2 3 4 4 4 5 5 5 6
2 4 6 3 4 5 6 5 6 7 5 3 3 3 3 1 3 6 7 8 8 8 8 8 8 8 8 7 7 6 6 5 4 4 3 3 3 4 4 4 4 4 5 6
4 4 6 2 5 4 3 5 4 5 4 2 2 4 2 2 5 7 7 7 7 7 7 7 7 7 7 7 7 7 7 6 5 4 4 3 3 3 3 4 4 4 4 5
6 6 7 3 6 7 5 1 4 4 4 4 4 3 3 4 5 6 7 7 7 7 6 6 7 6 7 7 7 7 6 5 4 4 3 3 2 3 3 3 4 4 4 4
7 8 7 8 9 8 1 3 3 3 3 4 4 3 4 4 5 6 6 6 7 6 6 6 6 6 7 7 7 6 5 4 4 3 2 2 3 3 4 4 4 4 4 4
8 6 2 8 6 2 3 3 3 3 3 4 4 4 4 5 5 5 6 6 6 6 7 6 6 6 7 7 6 6 5 4 3 2 2 2 3 4 4 4 4 4 4 4
6 7 6 6 6 4 4 3 3 3 3 4 4 4 5 4 5 5 5 6 5 6 6 7 7 6 6 6 6 5 5 4 3 2 2 2 2 3 3 4 4 4 4 4
7 5 4 8 9 8 6 4 3 3 3 4 4 4 4 4 4 4 5 5 5 5 6 7 7 6 6 6 5 5 4 4 3 2 2 1 2 2 4 4 4 4 4 4
8 8 7 6 8 9 8 7 6 5 4 3 4 4 4 4 4 4 4 4 5 5 6 6 6 6 6 5 5 5 4 4 3 2 2 1 1 1 2 3 4 5 5 4
4 4 4 4 6 7 7 7 6 6 5 4 3 3 3 4 3 3 4 4 5 6 6 6 6 6 6 6 5 4 4 3 3 2 2 1 1 1 1 1 3 4 5 6
5 5 4 5 6 7 6 6 5 4 4 3 3 3 3 3 3 3 4 4 5 5 5 5 5 6 6 6 5 5 4 3 3 2 2 2 2 1 1 1 1 1 3 5
9 7 5 5 6 6 6 5 5 4 4 3 3 3 3 3 4 4 4 4 4 4 4 5 5 6 6 6 5 5 4 3 2 2 2 2 1 1 1 2 1 1 1 2
9 7 7 7 8 7 7 7 6 6 4 4 3 3 3 4 4 3 3 3 3 4 4 5 5 6 6 5 5 4 3 4 3 2 2 2 1 1 1 1 1 2 2 1
11 10 10 9 10 9 8 8 7 6 5 4 4 3 3 3 3 3 3 3 3 4 4 4 5 5 5 5 4 3 3 3 3 2 2 2 2 2 2 2 2 2 2 2
11 11 11 10 9 9 8 7 6 6 5 4 3 3 3 3 4 3 3 3 3 3 3 4 5 5 4 4 4 3 3 3 2 2 2 2 2 2 1 1 2 2 1 1
9 8 8 8 8 8 7 7 6 5 4 3 3 4 4 4 4 3 3 3 3 4 3 3 5 5 4 4 4 3 3 3 2 2 2 3 2 2 2 2 2 2 1 1
8 8 8 7 7 7 6 6 5 5 4 4 4 4 4 4 3 3 3 3 3 3 4 4 4 4 4 4 4 3 3 3 3 2 2 2 2 2 2 2 2 1 1 1
9 9 9 8 7 6 6 6 6 5 4 4 5 4 4 4 3 3 3 3 2 2 3 4 3 3 3 3 3 2 2 2 2 2 2 2 2 2 2 2 2 2 2 2
8 8 8 7 7 6 5 5 5 5 4 4 4 4 4 3 3 3 4 3 3 3 3 2 3 4 4 4 2 2 2 2 2 2 2 2 2 2 2 2 2 2 2 2
7 7 7 7 6 5 5 5 5 5 5 5 5 5 4 4 3 3 3 2 2 3 3 3 4 6 6 3 2 2 2 3 3 2 2 2 2 2 2 3 2 2 2 2
7 7 6 5 5 5 5 5 4 4 4 4 4 4 4 3 3 3 3 3 4 4 3 3 5 5 4 2 2 2 2 3 3 3 3 3 2 2 2 3 3 3 3 3
6 6 6 7 6 5 4 4 3 3 4 3 3 3 3 3 3 2 2 3 4 4 3 4 5 5 3 2 3 3 3 3 3 3 3 3 3 3 3 3 3 3 3 3
6 5 5 5 4 3 3 3 3 3 3 3 2 2 2 2 2 2 2 2 3 4 3 3 3 3 2 3 3 3 3 3 3 3 3 3 4 4 3 3 4 4 4 4
4 4 3 3 3 3 4 4 4 4 3 3 3 2 2 2 2 2 2 2 2 2 2 2 2 2 2 3 3 3 3 3 3 3 3 3 3 3 4 4 4 4 4 4
Wind_Direction
319 331 228 234 223 212 215 224 232 244 255 272 297 306 316 335 347 349 351 357 356 351 348 346 346 346 344 340 336 327 315 304 295 294 276 237 205 189 178 171 164 161 160 158
226 291 270 260 242 229 230 235 240 256 270 286 287 291 305 319 332 335 342 346 346 345 342 341 341 341 338 337 334 321 307 298 293 285 269 230 200 180 171 170 164 159 163 161
216 332 280 253 230 215 214 218 224 240 255 279 275 285 302 310 318 327 334 336 337 337 337 333 332 332 331 329 326 318 310 303 293 275 256 230 199 184 177 173 167 165 164 165
207 221 239 172 79 213 221 231 227 242 257 269 282 291 293 297 312 325 329 329 328 330 329 327 325 326 325 323 322 320 314 309 301 285 263 229 202 193 188 178 175 172 169 169
207 247 267 235 194 188 205 236 218 227 244 274 311 285 264 311 335 324 321 320 320 320 320 319 321 325 323 322 322 320 315 311 302 286 264 235 215 202 195 185 179 177 174 173
195 237 248 163 142 160 190 238 182 206 225 230 248 264 291 337 324 322 320 319 320 320 317 316 321 324 320 319 321 321 318 312 303 287 265 247 228 209 198 189 184 175 174 179
212 242 264 158 143 161 207 181 141 192 205 204 232 279 318 309 311 315 316 319 320 318 318 319 322 321 315 316 318 318 313 306 298 285 266 248 226 203 191 185 179 176 174 179
196 220 241 148 158 199 213 95 155 186 208 224 250 282 293 298 304 309 315 322 325 323 323 325 326 321 314 316 320 317 313 309 303 292 271 231 204 189 185 182 179 179 179 180
207 217 68 167 190 176 137 170 180 195 219 228 246 267 285 293 297 305 315 322 327 325 322 327 332 325 317 320 320 316 315 315 312 301 276 229 204 186 182 186 187 186 188 190
238 240 219 208 205 192 189 197 193 204 214 224 247 263 276 287 295 305 315 320 323 323 324 329 332 330 324 322 321 318 316 319 320 310 288 241 213 197 195 194 194 195 196 196
237 239 218 222 212 205 198 197 198 209 224 231 245 260 272 281 291 302 310 314 320 323 323 324 327 328 330 330 324 320 321 323 319 311 293 268 240 223 216 217 216 206 201 196
214 197 193 196 187 190 193 201 204 208 222 236 243 258 267 276 288 297 305 313 316 319 320 323 325 326 331 333 326 321 322 324 322 320 316 298 266 261 248 239 233 230 223 211
203 165 177 160 168 179 194 200 202 207 211 224 243 254 258 272 281 291 300 306 311 314 316 320 322 325 331 332 326 320 319 321 320 315 309 300 283 258 261 253 229 226 220 219
184 154 169 184 185 186 188 187 191 200 208 218 227 241 252 267 278 286 294 303 309 312 317 320 322 326 332 332 328 323 322 323 319 315 309 301 292 277 257 240 232 247 233 228
199 200 191 170 166 172 173 172 183 197 204 214 222 233 246 261 270 278 291 302 308 309 316 321 321 326 333 333 329 324 323 325 323 318 313 307 301 289 272 259 249 247 254 234
185 186 182 182 183 180 178 187 199 207 209 215 228 241 251 261 266 275 287 297 302 304 314 317 317 323 328 328 325 321 320 328 326 318 315 312 303 290 279 267 252 237 235 233
173 188 192 195 196 194 197 202 207 208 209 216 231 244 252 262 270 277 286 292 291 295 306 309 312 319 323 323 320 316 317 319 320 311 304 299 293 284 277 270 260 250 248 238
197 195 191 191 191 193 199 202 206 207 208 215 219 228 238 247 258 272 285 297 297 298 301 307 313 316 317 321 320 314 311 311 315 312 310 306 305 296 284 274 269 268 277 259
192 186 186 186 186 188 190 193 199 201 201 198 203 219 234 247 261 273 283 284 286 295 308 316 317 312 310 314 318 307 305 307 310 313 314 314 312 307 303 295 289 285 276 267
179 175 175 175 176 181 185 188 189 192 195 196 207 222 236 248 258 266 267 267 270 287 305 310 309 306 308 309 313 303 304 306 308 310 312 311 313 315 316 313 307 301 294 281
173 171 171 173 175 181 185 185 187 193 193 196 207 222 236 247 249 252 259 270 283 300 302 303 305 308 309 310 300 298 302 303 303 304 304 304 307 311 312 309 306 303 299 295
170 171 173 174 176 183 186 188 191 192 192 200 214 225 234 241 245 249 250 259 281 294 294 289 295 306 311 305 291 292 295 297 298 297 294 295 295 295 297 299 296 295 294 291
169 170 171 174 178 177 178 188 193 193 199 206 214 220 229 238 237 240 255 252 263 275 279 277 296 305 307 298 292 292 292 292 293 293 293 290 287 285 286 288 290 290 287 285
167 166 164 161 160 172 188 193 193 200 207 214 218 222 227 234 241 239 255 269 273 280 278 286 295 299 300 288 285 285 287 287 287 288 287 282 278 279 280 282 284 284 283 282
163 159 159 165 179 192 193 184 189 200 207 218 226 228 228 229 238 250 257 263 273 280 280 286 292 293 285 278 277 277 278 278 281 282 280 280 277 275 274 275 277 280 280 279
171 174 178 186 188 184 179 184 197 201 205 217 227 228 230 232 238 246 254 262 268 275 275 274 276 277 271 271 273 276 276 280 280 277 277 279 279 277 274 274 275 271 272 271
163 169 171 180 188 187 186 194 201 204 206 213 229 226 231 236 237 245 257 265 269 272 273 272 271 269 269 270 272 274 274 275 274 274 275 274 276 277 279 278 276 274 271 269